User: anonymous   Login
Location: Malvern Link
(52.1333°N, 2.3000°W)
Time: 12:49:24
(UTC+00:00)
Language:

YAOGAN-30 N - Orbit

View from above orbital plane
View from above orbital plane
View from above satellite
View from above satellite

Ground track
Ground track

The orbit data is extracted from the following two-line orbital elements,

1 44449U 19045A   22338.04649847  .00001332  00000-0  13482-3 0  9994
2 44449  34.9950 207.2227 0005096 258.1337 101.8795 14.91023081183101
Epoch (UTC): 04 December 2022 01:06:57
Eccentricity: 0.0005096
inclination: 34.9950°
perigee height: 591 km
apogee height: 598 km
right ascension of ascending node: 207.2227°
argument of perigee: 258.1337°
revolutions per day: 14.91023081
mean anomaly at epoch: 101.8795°
orbit number at epoch: 18310

The dashed part of the orbit path shows where the satellite is in the earth's shadow,  

DLR